EZY18DM EGPF-EGGW

Flight info

Callsign EZY18DM
Flight time 0h 50m
Altitude 25000
Route NORBO T256 RIPNO/N0450F330 DCT AKOMU DCT VAMEB UL612 LISTO
Aircraft A320/M-SDE3FGHIRWY/LB1

Departure

Time 2026-05-07 22:10
Airport Glasgow Airport (EGPF)

Arrival

Time 2026-05-07 23:01
Airport London Luton Airport (EGGW)
Time Latitude Longitude Altitude Speed Heading
2026-05-07 21:34 55.86580 -4.43405 29 ft 0 kts 73°
2026-05-07 22:01 55.86575 -4.43435 29 ft 4 kts 70°
2026-05-07 22:02 55.86565 -4.43479 29 ft 4 kts 61°
2026-05-07 22:02 55.86549 -4.43516 29 ft 4 kts 30°
2026-05-07 22:02 55.86534 -4.43523 29 ft 0 kts 344°
2026-05-07 22:04 55.86537 -4.43523 29 ft 2 kts 350°
2026-05-07 22:04 55.86579 -4.43547 29 ft 10 kts 343°
2026-05-07 22:04 55.86644 -4.43581 29 ft 9 kts 344°
2026-05-07 22:05 55.86702 -4.43611 29 ft 8 kts 344°
2026-05-07 22:05 55.86749 -4.43587 29 ft 7 kts 45°
2026-05-07 22:05 55.86775 -4.43477 29 ft 13 kts 73°
2026-05-07 22:05 55.86799 -4.43327 29 ft 12 kts 74°
2026-05-07 22:06 55.86821 -4.43192 29 ft 11 kts 74°
2026-05-07 22:06 55.86840 -4.43072 29 ft 10 kts 73°
2026-05-07 22:06 55.86882 -4.42955 29 ft 13 kts 28°
2026-05-07 22:06 55.86978 -4.42869 29 ft 18 kts 25°
2026-05-07 22:07 55.87103 -4.42784 29 ft 19 kts 20°
2026-05-07 22:07 55.87220 -4.42702 29 ft 17 kts 21°
2026-05-07 22:07 55.87330 -4.42631 29 ft 16 kts 20°
2026-05-07 22:07 55.87419 -4.42534 29 ft 15 kts 44°
2026-05-07 22:08 55.87487 -4.42410 29 ft 13 kts 46°
2026-05-07 22:08 55.87547 -4.42294 29 ft 12 kts 47°
2026-05-07 22:08 55.87612 -4.42177 29 ft 17 kts 45°
2026-05-07 22:08 55.87701 -4.42007 29 ft 18 kts 46°
2026-05-07 22:09 55.87794 -4.41867 29 ft 17 kts 21°
2026-05-07 22:09 55.87900 -4.41879 29 ft 15 kts 332°
2026-05-07 22:09 55.87893 -4.42024 29 ft 16 kts 227°
2026-05-07 22:09 55.87675 -4.42431 29 ft 80 kts 226°
2026-05-07 22:10 55.87146 -4.43419 30 ft 137 kts 226°
2026-05-07 22:10 55.86458 -4.44734 545 ft 143 kts 227°
2026-05-07 22:10 55.85767 -4.46028 1204 ft 150 kts 223°
2026-05-07 22:10 55.84974 -4.47427 1577 ft 171 kts 223°
2026-05-07 22:11 55.84063 -4.49032 1962 ft 197 kts 223°
2026-05-07 22:11 55.83047 -4.50829 2450 ft 221 kts 224°
2026-05-07 22:11 55.81911 -4.52839 3076 ft 237 kts 225°
2026-05-07 22:11 55.80724 -4.54938 3996 ft 242 kts 225°
2026-05-07 22:12 55.79527 -4.57052 5014 ft 244 kts 224°
2026-05-07 22:12 55.78313 -4.59187 5985 ft 247 kts 225°
2026-05-07 22:12 55.77087 -4.61341 6934 ft 249 kts 225°
2026-05-07 22:12 55.75848 -4.63525 7844 ft 252 kts 224°
2026-05-07 22:13 55.74595 -4.65731 8749 ft 256 kts 224°
2026-05-07 22:13 55.73320 -4.67976 9635 ft 260 kts 224°
2026-05-07 22:13 55.72011 -4.70267 10272 ft 273 kts 224°
2026-05-07 22:13 55.70589 -4.72704 10598 ft 294 kts 223°
2026-05-07 22:14 55.68919 -4.74877 11211 ft 304 kts 206°
2026-05-07 22:14 55.66845 -4.75757 11947 ft 313 kts 186°
2026-05-07 22:14 55.64650 -4.75908 12733 ft 318 kts 185°
2026-05-07 22:14 55.62425 -4.75998 13507 ft 323 kts 181°
2026-05-07 22:15 55.60176 -4.75357 14197 ft 333 kts 168°
2026-05-07 22:15 55.58020 -4.73723 14873 ft 343 kts 154°
2026-05-07 22:15 55.56081 -4.71193 15557 ft 350 kts 145°
2026-05-07 22:15 55.54190 -4.68463 16274 ft 352 kts 146°
2026-05-07 22:16 55.52284 -4.65726 16961 ft 355 kts 146°
2026-05-07 22:16 55.51010 -4.63902 17414 ft 357 kts 146°
2026-05-07 22:16 55.49074 -4.61136 18101 ft 360 kts 146°
2026-05-07 22:16 55.47122 -4.58351 18705 ft 362 kts 146°
2026-05-07 22:17 55.44510 -4.54636 19468 ft 366 kts 146°
2026-05-07 22:17 55.42520 -4.51809 20009 ft 369 kts 146°
2026-05-07 22:17 55.40516 -4.48962 20551 ft 373 kts 146°
2026-05-07 22:17 55.39148 -4.47020 20926 ft 375 kts 146°
2026-05-07 22:18 55.37113 -4.44133 21469 ft 377 kts 146°
2026-05-07 22:18 55.32991 -4.38304 22528 ft 383 kts 146°
2026-05-07 22:18 55.30905 -4.35362 23064 ft 386 kts 146°
2026-05-07 22:19 55.28830 -4.32443 23584 ft 389 kts 146°
2026-05-07 22:19 55.26713 -4.29466 24019 ft 391 kts 146°
2026-05-07 22:19 55.24583 -4.26473 24459 ft 393 kts 146°
2026-05-07 22:19 55.22439 -4.23468 24860 ft 396 kts 146°
2026-05-07 22:20 55.20284 -4.20450 25279 ft 398 kts 146°
2026-05-07 22:20 55.18127 -4.17400 25713 ft 401 kts 143°
2026-05-07 22:20 55.16134 -4.13935 26107 ft 406 kts 137°
2026-05-07 22:20 55.14186 -4.10336 26531 ft 408 kts 138°
2026-05-07 22:21 55.12232 -4.06730 26924 ft 410 kts 137°
2026-05-07 22:21 55.10260 -4.03091 27322 ft 413 kts 137°
2026-05-07 22:21 55.08285 -3.99453 27720 ft 415 kts 138°
2026-05-07 22:21 55.06294 -3.95796 28121 ft 417 kts 138°
2026-05-07 22:22 55.04290 -3.92127 28516 ft 419 kts 138°
2026-05-07 22:22 55.02276 -3.88444 28904 ft 421 kts 138°
2026-05-07 22:22 55.00249 -3.84747 29277 ft 423 kts 138°
2026-05-07 22:22 54.98211 -3.81037 29630 ft 425 kts 137°
2026-05-07 22:23 54.96160 -3.77305 29975 ft 428 kts 137°
2026-05-07 22:23 54.93984 -3.73779 30238 ft 427 kts 145°
2026-05-07 22:23 54.91540 -3.70865 30514 ft 426 kts 152°
2026-05-07 22:23 54.89005 -3.68170 30799 ft 428 kts 152°
2026-05-07 22:24 54.86457 -3.65466 31070 ft 430 kts 152°
2026-05-07 22:24 54.83899 -3.62749 31339 ft 432 kts 152°
2026-05-07 22:24 54.81333 -3.60022 31666 ft 432 kts 152°
2026-05-07 22:24 54.78771 -3.57305 32060 ft 431 kts 152°
2026-05-07 22:25 54.76213 -3.54598 32447 ft 430 kts 152°
2026-05-07 22:25 54.73659 -3.51901 32826 ft 430 kts 152°
2026-05-07 22:25 54.71106 -3.49209 32989 ft 427 kts 152°
2026-05-07 22:25 54.68610 -3.46573 33001 ft 415 kts 152°
2026-05-07 22:26 54.66165 -3.43992 33014 ft 410 kts 152°
2026-05-07 22:26 54.61315 -3.38894 33013 ft 408 kts 152°
2026-05-07 22:27 54.56468 -3.33818 33019 ft 407 kts 152°
2026-05-07 22:27 54.51618 -3.28764 33018 ft 407 kts 153°
2026-05-07 22:28 54.46769 -3.23724 33017 ft 407 kts 153°
2026-05-07 22:28 54.41958 -3.18733 32986 ft 407 kts 152°
2026-05-07 22:29 54.37107 -3.13709 32995 ft 408 kts 152°
2026-05-07 22:29 54.32246 -3.08677 32996 ft 409 kts 152°
2026-05-07 22:30 54.27371 -3.03658 33006 ft 409 kts 152°
2026-05-07 22:30 54.22487 -2.98651 33005 ft 409 kts 152°
2026-05-07 22:31 54.17594 -2.93679 32997 ft 409 kts 155°
2026-05-07 22:31 54.12427 -2.89719 33003 ft 407 kts 160°
2026-05-07 22:32 54.07218 -2.85929 33012 ft 407 kts 160°
2026-05-07 22:32 54.01999 -2.82148 33014 ft 408 kts 160°
2026-05-07 22:33 53.96778 -2.78365 33018 ft 408 kts 160°
2026-05-07 22:33 53.91554 -2.74590 33026 ft 408 kts 160°
2026-05-07 22:34 53.86337 -2.70829 33032 ft 408 kts 160°
2026-05-07 22:34 53.81118 -2.67067 33039 ft 407 kts 160°
2026-05-07 22:35 53.75899 -2.63324 33038 ft 407 kts 160°
2026-05-07 22:35 53.70681 -2.59595 33019 ft 407 kts 160°
2026-05-07 22:36 53.65491 -2.55889 33017 ft 408 kts 160°
2026-05-07 22:36 53.60246 -2.52162 33022 ft 410 kts 160°
2026-05-07 22:37 53.54994 -2.48421 33024 ft 410 kts 160°
2026-05-07 22:37 53.49734 -2.44688 33031 ft 410 kts 160°
2026-05-07 22:38 53.44468 -2.40977 33032 ft 410 kts 160°
2026-05-07 22:38 53.39199 -2.37282 33042 ft 410 kts 160°
2026-05-07 22:39 53.33937 -2.33586 33042 ft 411 kts 160°
2026-05-07 22:39 53.28669 -2.29891 33044 ft 410 kts 160°
2026-05-07 22:40 53.23402 -2.26203 33045 ft 410 kts 160°
2026-05-07 22:40 53.18136 -2.22537 33042 ft 410 kts 160°
2026-05-07 22:41 53.13026 -2.18303 33048 ft 413 kts 148°
2026-05-07 22:41 53.08380 -2.12643 33046 ft 414 kts 147°
2026-05-07 22:42 53.03742 -2.06998 33046 ft 413 kts 147°
2026-05-07 22:42 52.99099 -2.01361 33036 ft 413 kts 147°
2026-05-07 22:43 52.94450 -1.95735 33031 ft 414 kts 147°
2026-05-07 22:43 52.89753 -1.90072 32784 ft 425 kts 147°
2026-05-07 22:43 52.87353 -1.87173 32044 ft 427 kts 145°
2026-05-07 22:44 52.85096 -1.83985 31489 ft 425 kts 141°
2026-05-07 22:44 52.82908 -1.80699 30939 ft 423 kts 140°
2026-05-07 22:44 52.80741 -1.77440 30392 ft 420 kts 140°
2026-05-07 22:44 52.78586 -1.74207 29797 ft 417 kts 140°
2026-05-07 22:45 52.76442 -1.70998 29167 ft 414 kts 140°
2026-05-07 22:45 52.74312 -1.67815 28539 ft 412 kts 140°
2026-05-07 22:45 52.72195 -1.64662 27898 ft 409 kts 140°
2026-05-07 22:45 52.70092 -1.61535 27298 ft 406 kts 141°
2026-05-07 22:46 52.68002 -1.58435 26724 ft 403 kts 141°
2026-05-07 22:46 52.65928 -1.55363 26153 ft 400 kts 141°
2026-05-07 22:46 52.63866 -1.52314 25596 ft 397 kts 141°
2026-05-07 22:46 52.61819 -1.49294 25043 ft 394 kts 141°
2026-05-07 22:47 52.59785 -1.46288 24505 ft 392 kts 141°
2026-05-07 22:47 52.57795 -1.43345 23989 ft 389 kts 141°
2026-05-07 22:47 52.55779 -1.40412 23448 ft 386 kts 142°
2026-05-07 22:47 52.53702 -1.37621 22837 ft 384 kts 143°
2026-05-07 22:48 52.51628 -1.34878 22242 ft 382 kts 143°
2026-05-07 22:48 52.49557 -1.32152 21632 ft 380 kts 143°
2026-05-07 22:48 52.47494 -1.29447 21077 ft 379 kts 143°
2026-05-07 22:48 52.45438 -1.26759 20515 ft 377 kts 143°
2026-05-07 22:49 52.43391 -1.24090 19976 ft 376 kts 143°
2026-05-07 22:49 52.41347 -1.21433 19463 ft 374 kts 144°
2026-05-07 22:49 52.39309 -1.18791 18931 ft 373 kts 144°
2026-05-07 22:49 52.37304 -1.16203 18380 ft 361 kts 145°
2026-05-07 22:50 52.35205 -1.14119 17697 ft 347 kts 153°
2026-05-07 22:50 52.33212 -1.11990 17082 ft 338 kts 146°
2026-05-07 22:50 52.31341 -1.09756 16480 ft 329 kts 146°
2026-05-07 22:50 52.29522 -1.07564 15889 ft 321 kts 146°
2026-05-07 22:51 52.27743 -1.05416 15302 ft 315 kts 146°
2026-05-07 22:51 52.25995 -1.03311 14732 ft 310 kts 146°
2026-05-07 22:51 52.24273 -1.01245 14173 ft 305 kts 146°
2026-05-07 22:51 52.22569 -0.99205 13584 ft 302 kts 146°
2026-05-07 22:52 52.20880 -0.97191 12958 ft 299 kts 146°
2026-05-07 22:52 52.19209 -0.95206 12348 ft 296 kts 146°
2026-05-07 22:52 52.17550 -0.93249 11745 ft 293 kts 146°
2026-05-07 22:52 52.15901 -0.91316 11163 ft 291 kts 146°
2026-05-07 22:53 52.14262 -0.89400 10587 ft 289 kts 146°
2026-05-07 22:53 52.12632 -0.87504 10028 ft 287 kts 146°
2026-05-07 22:53 52.11016 -0.85609 9409 ft 285 kts 146°
2026-05-07 22:53 52.09415 -0.83728 8787 ft 282 kts 146°
2026-05-07 22:54 52.07829 -0.81878 8194 ft 279 kts 146°
2026-05-07 22:54 52.06261 -0.80069 7599 ft 275 kts 146°
2026-05-07 22:54 52.04700 -0.78295 7022 ft 272 kts 146°
2026-05-07 22:54 52.03145 -0.76552 6443 ft 269 kts 146°
2026-05-07 22:55 52.01629 -0.74879 5838 ft 266 kts 146°
2026-05-07 22:55 52.00109 -0.73204 5257 ft 262 kts 146°
2026-05-07 22:55 51.98604 -0.71545 4726 ft 261 kts 146°
2026-05-07 22:55 51.97112 -0.69897 4227 ft 258 kts 146°
2026-05-07 22:56 51.95637 -0.68253 3763 ft 256 kts 146°
2026-05-07 22:56 51.94277 -0.66430 3299 ft 250 kts 138°
2026-05-07 22:56 51.93046 -0.64524 2881 ft 239 kts 137°
2026-05-07 22:56 51.91904 -0.62714 2687 ft 221 kts 137°
2026-05-07 22:57 51.90846 -0.61019 2545 ft 206 kts 137°
2026-05-07 22:57 51.89861 -0.59432 2412 ft 194 kts 137°
2026-05-07 22:57 51.88919 -0.57910 2312 ft 189 kts 136°
2026-05-07 22:57 51.88070 -0.56350 2188 ft 180 kts 132°
2026-05-07 22:58 51.87308 -0.54817 2074 ft 170 kts 131°
2026-05-07 22:58 51.86584 -0.53335 2005 ft 165 kts 131°
2026-05-07 22:58 51.85881 -0.51881 2007 ft 164 kts 128°
2026-05-07 22:58 51.85420 -0.50187 1957 ft 168 kts 104°
2026-05-07 22:59 51.85468 -0.48317 1836 ft 163 kts 78°
2026-05-07 22:59 51.85764 -0.46633 1621 ft 149 kts 78°
2026-05-07 22:59 51.86041 -0.45045 1434 ft 144 kts 77°
2026-05-07 22:59 51.86310 -0.43501 1225 ft 141 kts 77°
2026-05-07 23:00 51.86575 -0.41998 1045 ft 138 kts 77°
2026-05-07 23:00 51.86829 -0.40516 836 ft 136 kts 76°
2026-05-07 23:00 51.87082 -0.39052 635 ft 135 kts 77°
2026-05-07 23:00 51.87326 -0.37660 531 ft 122 kts 81°
2026-05-07 23:01 51.87509 -0.36557 525 ft 78 kts 73°
2026-05-07 23:01 51.87606 -0.36002 516 ft 21 kts 73°
2026-05-07 23:01 51.87706 -0.35935 516 ft 17 kts 346°
2026-05-07 23:01 51.87782 -0.36047 518 ft 14 kts 279°
2026-05-07 23:02 51.87765 -0.36183 518 ft 11 kts 253°
2026-05-07 23:02 51.87744 -0.36303 518 ft 12 kts 255°
2026-05-07 23:02 51.87710 -0.36504 520 ft 22 kts 255°
2026-05-07 23:02 51.87669 -0.36742 523 ft 22 kts 255°
2026-05-07 23:03 51.87628 -0.36980 523 ft 24 kts 255°
2026-05-07 23:03 51.87583 -0.37240 522 ft 21 kts 255°
2026-05-07 23:03 51.87613 -0.37435 523 ft 18 kts 319°
2026-05-07 23:03 51.87702 -0.37572 520 ft 18 kts 294°
2026-05-07 23:04 51.87738 -0.37690 521 ft 16 kts 294°
2026-05-07 23:04 51.87788 -0.37873 523 ft 12 kts 295°
2026-05-07 23:04 51.87812 -0.37936 523 ft 7 kts 311°
2026-05-07 23:04 51.87852 -0.37903 523 ft 3 kts 45°
2026-05-07 23:05 51.87858 -0.37894 523 ft 0 kts 45°